Location: Brede
(50.9167°N, 0.6000°E)
Time: 19:58:56
(UTC+00:00)

Altair - Pass Details

Date: 03 August 2021
Orbit: 1501 x 1682 km, 47.2° (Epoch: 22 September)

Event Time Altitude Azimuth Distance (km) Brightness Sun altitude
Exits shadow 01:11:59 29° 198° (SSW) 2,534 8.0 -20.0°
Maximum altitude 01:16:10 44° 149° (SSE) 2,013 7.8 -19.8°
Drops below altitude 10° 01:24:41 10° 81° (E) 3,666 9.9 -19.3°
Sets 01:27:51 0° 75° (ENE) 4,642 10.5 -19.2°
